utc_time,unix_time,temp,cond,salinity,tds,chla_rfu,chla_ugl,bga_rfu,bga_ugl,odo,sat,nitrate_um,nitrogen_mg,stage,area,discharge,total_discharge
2017-05-01 00:00:00+00:00,1493597250,17.50925,34451.35,25.7375,26132.25,13.0025,52.01,26.8575,75.2,7.18,87.625,,,,,,
2017-05-01 00:20:00+00:00,1493598450,17.48275,34604.45,25.88,26263.75,12.205,48.83,25.4525,71.265,7.585,92.6,,,,,,
2017-05-01 00:40:00+00:00,1493599650,17.53675,34507.575,25.765,26159,12.1375,48.56,24.9875,69.9675,6.91,84.4,,,,,,
2017-05-01 01:00:00+00:00,1493600850,17.3585,35289.375,26.5325,26858.75,11.5925,46.3625,23.9625,67.09,7.495,91.7,,,,,,
2017-05-01 01:20:00+00:00,1493602050,17.13025,32688.925,24.5125,25005.75,10.98,43.9225,22.72,63.62,7.2,86.575,,,,,,
2017-05-01 01:40:00+00:00,1493603250,16.8965,33815.775,25.5975,26005.75,10.32,41.275,22.145,62.0075,6.9125,83.275,,,,,,
2017-05-01 02:00:00+00:00,1493604450,16.68025,34375.45,26.2075,26566,9.51,38.035,20.4975,57.395,6.155,74.125,,,,,,
2017-05-01 02:20:00+00:00,1493605650,16.56375,33741.15,25.745,26144.5,9.065,36.2625,19.515,54.64,5.1225,61.35,,,,,,
2017-05-01 02:40:00+00:00,1493606850,16.39875,33676.7,25.7975,26193,8.8375,35.3575,18.91,52.95,5.045,60.275,,,,,,
2017-05-01 03:00:00+00:00,1493608050,16.4395,32926.425,25.135,25585.5,10.4825,41.9375,24.175,67.6875,5.44,64.75,,,,,,
2017-05-01 03:20:00+00:00,1493609250,16.5445,32174.825,24.44,24942,10.895,43.5775,22.5175,63.0475,5.615,66.725,,,,,,
2017-05-01 03:40:00+00:00,1493610450,16.57125,31376.7,23.755,24308.25,9.65,38.5925,19.92,55.78,4.8275,57.15,,,,,,
2017-05-01 04:00:00+00:00,1493611650,16.471,31890.275,24.245,24763,8.19,32.7725,17.2325,48.255,3.93,46.575,,,,,,
2017-05-01 04:20:00+00:00,1493612850,16.44275,32284.6,24.5975,25085,8.09,32.3675,16.7425,46.8825,3.5275,41.875,,,,,,
2017-05-01 04:40:00+00:00,1493614050,16.40425,31968.35,24.35,24861,7.84,31.36,15.6525,43.8225,3.67,43.425,,,,,,
2017-05-01 05:00:00+00:00,1493615250,16.38125,31379.85,23.8725,24416.5,7.955,31.8225,16.0175,44.845,3.1575,37.3,,,,,,
2017-05-01 05:20:00+00:00,1493616450,16.328,31719.4,24.185,24710.75,7.7175,30.87,15.8225,44.31,3.47,41.05,,,,,,
2017-05-01 05:40:00+00:00,1493617650,16.30825,31755.05,24.23,24749.25,7.57,30.285,15.7325,44.0475,2.815,33.25,,,,,,
2017-05-01 06:00:00+00:00,1493618850,16.15475,34311.475,26.5,26837,8.0025,32.015,16.34,45.75,3.2,38.2,,,,,,
2017-05-01 06:20:00+00:00,1493620050,16.03325,35386.925,27.5025,27754.5,8.135,32.5475,17.3775,48.6625,2.6125,31.3,,,,,,
2017-05-01 06:40:00+00:00,1493621250,15.807,34962.225,27.2925,27565.75,7.9275,31.705,17.28,48.38,3.3725,40.2,,,,,,
2017-05-01 07:00:00+00:00,1493622450,15.6465,34471.35,26.9775,27279.25,8.18,32.725,17.5325,49.095,3.0475,36.1,,,,,,
2017-05-01 07:20:00+00:00,1493623650,15.42975,34664.7,27.295,27572,7.57,30.2675,16.7225,46.8325,3.2225,38.1,,,,,,
2017-05-01 07:40:00+00:00,1493624850,15.258,34883.725,27.605,27857.75,9.24,36.965,23.0675,64.5825,3.3125,39.15,,,,,,
2017-05-01 08:00:00+00:00,1493626050,15.0165,32718.95,25.8725,26277.5,7.29,29.16,16.44,46.0275,3.5725,41.55,,,,,,
2017-05-01 08:20:00+00:00,1493627250,14.832,32676.15,25.96,26358.75,7.225,28.8975,16.3175,45.6875,3.38,39.175,,,,,,
2017-05-01 08:40:00+00:00,1493628450,14.68375,31216.2,24.775,25269.5,7.565,30.2625,17.1725,48.085,3.89,44.575,,,,,,
2017-05-01 09:00:00+00:00,1493629650,14.58575,31420.825,25.015,25494.75,7.6975,30.7925,17.475,48.9325,4.2925,49.2,,,,,,
2017-05-01 09:20:00+00:00,1493630850,14.52175,31640.325,25.2525,25712.25,7.65,30.6,17.2425,48.28,4.19,48.025,,,,,,
2017-05-01 09:40:00+00:00,1493632050,14.44175,31977.825,25.6025,26036.25,7.4425,29.765,17.035,47.7,3.85,44.15,,,,,,
2017-05-01 10:00:00+00:00,1493633250,14.35225,32330,25.9725,26379.25,6.8475,27.38,15.39,43.09,4.415,50.675,,,,,,
2017-05-01 10:20:00+00:00,1493634450,14.2435,33000.675,26.645,26996.75,6.4,25.605,14.7575,41.3175,4.4425,51.1,,,,,,
2017-05-01 10:40:00+00:00,1493635650,14.1195,33264.9,26.9675,27294.25,6.3725,25.4875,13.665,38.26,4.47,51.375,,,,,,
2017-05-01 11:00:00+00:00,1493636850,14.0525,31110.15,25.0875,25567.25,5.9825,23.93,13.705,38.375,4.5325,51.4,,,,,,
2017-05-01 11:20:00+00:00,1493638050,13.95025,30566.95,24.6675,25183.25,5.455,21.8175,12.5025,35.005,4.5525,51.4,,,,,,
2017-05-01 11:40:00+00:00,1493639250,13.87575,30128.45,24.3225,24867.25,5.2925,21.1625,12.0975,33.8775,4.495,50.575,,,,,,
2017-05-01 12:00:00+00:00,1493640450,13.8315,30106.525,24.3325,24875.75,4.88,19.52,11.44,32.035,4.11,46.2,,,,,,
2017-05-01 12:20:00+00:00,1493641650,13.798,31042.275,25.19,25669.75,4.53,18.1225,10.5675,29.5875,4.0825,46.1,,,,,,
2017-05-01 12:40:00+00:00,1493642850,13.77075,31249.6,25.395,25858.25,4.4625,17.8475,10.2975,28.8325,3.7025,41.85,,,,,,
2017-05-01 13:00:00+00:00,1493644050,13.696,31204.85,25.405,25868.5,4.1975,16.785,9.95,27.87,3.9175,44.2,,,,,,
2017-05-01 13:20:00+00:00,1493645250,13.663,31349.65,25.5575,26009.25,3.9025,15.6175,9.7,27.165,3.81,43,,,,,,
2017-05-01 13:40:00+00:00,1493646450,13.64875,31553.25,25.75,26187.25,3.74,14.9575,9.0425,25.32,3.63,40.975,,,,,,
2017-05-01 14:00:00+00:00,1493647650,13.63175,31862.3,26.0375,26454.5,3.505,14.0225,8.7825,24.585,3.52,39.8,,,,,,
2017-05-01 14:20:00+00:00,1493648850,13.64425,31439.45,25.65,26095.25,3.7025,14.815,8.615,24.12,3.2925,37.15,,,,,,
2017-05-01 14:40:00+00:00,1493650050,14.0515,29060.075,23.285,23888.25,14.4025,57.615,26.41,73.9475,4.2275,47.35,,,,,,
2017-05-01 15:00:00+00:00,1493651250,14.142,24127.05,18.9225,19787,22.6,90.3975,39.505,110.6175,5.845,63.95,,,,,,
2017-05-01 15:20:00+00:00,1493652450,14.6035,23302.175,18.0025,18899.5,26.02,104.07,46.9,131.325,6.325,69.45,,,,,,
2017-05-01 15:40:00+00:00,1493653650,15.177,22757.4,17.2875,18209.25,29.28,117.1275,52.6775,147.495,6.8175,75.4,,,,,,
2017-05-01 16:00:00+00:00,1493654850,15.5525,22680.425,17.0625,17987.75,29.035,116.15,54,151.205,7.5925,84.6,,,,,,
2017-05-01 16:20:00+00:00,1493656050,15.93025,24076.275,18.04,18927.75,28.88,115.515,53.02,148.455,7.205,81.325,,,,,,
2017-05-01 16:40:00+00:00,1493657250,16.3535,25328.15,18.87,19721.25,27.085,108.345,49.335,138.1425,7.2625,83.125,,,,,,
2017-05-01 17:00:00+00:00,1493658450,16.756,25713.4,18.995,19836.75,28.0475,112.185,52.6425,147.3975,7.39,85.275,,,,,,
2017-05-01 17:20:00+00:00,1493659650,16.93675,27046.7,19.99,20780.5,23.0625,92.2525,45.1875,126.525,6.075,70.8,,,,,,
2017-05-01 17:40:00+00:00,1493660850,17.3,28097.625,20.6625,21414,21.9425,87.765,43.6575,122.2475,5.5775,65.75,,,,,,
2017-05-01 18:00:00+00:00,1493662050,18.05125,28177.325,20.3475,21117.75,22.56,90.2375,44.135,123.5825,6.2925,75.125,,,,,,
2017-05-01 18:20:00+00:00,1493663250,18.79775,28117.3,19.94,20733.5,21.44,85.76,42.6625,119.445,6.61,79.95,,,,,,
2017-05-01 18:40:00+00:00,1493664450,19.6655,27287.725,18.9025,19755.25,24.6275,98.5025,48.2725,135.165,7.595,92.85,,,,,,
2017-05-01 19:00:00+00:00,1493665650,20.1485,27247.625,18.6575,19522.75,28.4175,113.6625,55.62,155.7375,7.4575,91.85,,,,,,
2017-05-01 19:20:00+00:00,1493666850,19.78875,27639.65,19.115,19953.5,32.365,129.4525,64.075,179.3975,4.9975,61.25,,,,,,
2017-05-01 19:40:00+00:00,1493668050,19.71975,27468.175,19.01,19857.25,32.155,128.6225,63.0275,176.475,3.9575,48.475,,,,,,
2017-05-01 20:00:00+00:00,1493669250,20.01125,27371.725,18.81,19669.5,31.3425,125.385,60.7775,170.1825,3.745,46.05,,,,,,
2017-05-01 20:20:00+00:00,1493670450,19.87925,28388.975,19.6375,20453.5,30.065,120.2525,62.6575,175.435,2.2725,27.975,,,,,,
2017-05-01 20:40:00+00:00,1493671650,20.168,29492.875,20.34,21118.75,30.24,120.955,59.045,165.3225,2.6075,32.4,,,,,,
2017-05-01 21:00:00+00:00,1493672850,20.47925,29428.775,20.1425,20937.25,32.07,128.2775,61.1525,171.23,3.165,39.525,,,,,,
2017-05-01 21:20:00+00:00,1493674050,20.792,29047.575,19.7125,20532.5,31.165,124.665,59.9875,167.965,5.75,72.2,,,,,,
2017-05-01 21:40:00+00:00,1493675250,20.5085,29506.825,20.19,20979.5,36.9575,147.8225,68.3525,191.3825,5.82,72.825,,,,,,
2017-05-01 22:00:00+00:00,1493676450,20.8015,30180.55,20.5575,21330.25,37.7275,150.9225,69.4375,194.42,7.8575,99.075,,,,,,
2017-05-01 22:20:00+00:00,1493677650,21.11475,30111.55,20.3525,21141.5,34.9775,139.9,67.245,188.285,8.9975,113.975,,,,,,
2017-05-01 22:40:00+00:00,1493678850,20.963,29934.625,20.2925,21082.5,32.515,130.0575,64.1225,179.5375,8.69,109.725,,,,,,
2017-05-01 23:00:00+00:00,1493680050,20.32025,30716.2,21.1975,21927.5,21.73,86.9125,45.05,126.1375,6.6225,83,,,,,,
2017-05-01 23:20:00+00:00,1493681250,19.762,31973.625,22.445,23093.75,15.54,62.16,32.655,91.4375,6.04,75.475,,,,,,
2017-05-01 23:40:00+00:00,1493682450,19.29775,31898.4,22.6375,23268.25,12.1525,48.6075,24.82,69.495,6.045,74.975,,,,,,
2017-05-02 00:00:00+00:00,1493683650,18.78225,32875.65,23.6925,24249.25,9.81,39.2375,20.71,57.98,5.5975,69.225,,,,,,
2017-05-02 00:20:00+00:00,1493684850,18.56675,33302.725,24.16,24679.25,9.6275,38.505,20.145,56.41,5.8125,71.725,,,,,,
2017-05-02 00:40:00+00:00,1493686050,18.262,31946.4,23.245,23832.25,9.5875,38.3575,19.9875,55.96,5.9975,73.2,,,,,,
2017-05-02 01:00:00+00:00,1493687250,18.05775,32363.9,23.7,24252.75,9.15,36.6,19.9325,55.82,5.6325,68.625,,,,,,
2017-05-02 01:20:00+00:00,1493688450,17.90025,32014.8,23.5075,24074,8.98,35.915,19.395,54.2975,5.675,68.875,,,,,,
2017-05-02 01:40:00+00:00,1493689650,17.82325,32544.45,23.9825,24514.25,8.385,33.5375,18.85,52.77,5.7075,69.35,,,,,,
2017-05-02 02:00:00+00:00,1493690850,17.6875,31873.725,23.515,24081.75,9.6225,38.49,21.21,59.39,5.8075,70.175,,,,,,
2017-05-02 02:20:00+00:00,1493692050,17.735,31583.6,23.2475,23836.5,9.39,37.565,20.575,57.6125,6.5575,79.225,,,,,,
2017-05-02 02:40:00+00:00,1493693250,17.5745,31330.625,23.1375,23730.75,8.575,34.2975,19.2725,53.9675,5.6575,68.075,,,,,,
2017-05-02 03:00:00+00:00,1493694450,17.337,32551.725,24.275,24786.75,7.3775,29.525,16.535,46.3025,4.9675,59.925,,,,,,
2017-05-02 03:20:00+00:00,1493695650,17.188,34103.325,25.655,26055,9.295,37.1775,25.025,70.0675,4.8325,58.65,,,,,,
2017-05-02 03:40:00+00:00,1493696850,17.04275,35143.575,26.6125,26937.25,7.5275,30.1175,16.86,47.21,4.6275,56.3,,,,,,
2017-05-02 04:00:00+00:00,1493698050,16.97175,34829.65,26.395,26739,7.565,30.2675,16.835,47.13,4.385,53.175,,,,,,
2017-05-02 04:20:00+00:00,1493699250,16.8485,34785.65,26.44,26780.25,7.6125,30.4625,17.5325,49.09,4.45,53.8,,,,,,
2017-05-02 04:40:00+00:00,1493700450,16.73825,35319.525,26.9675,27259,7.65,30.605,17.645,49.4075,4.2775,51.775,,,,,,
2017-05-02 05:00:00+00:00,1493701650,16.49225,36502.65,28.14,28329.25,7.1,28.405,16.4925,46.1875,3.67,44.525,,,,,,
2017-05-02 05:20:00+00:00,1493702850,16.3345,35524.4,27.4125,27670.75,6.9175,27.67,16.17,45.275,3.2725,39.475,,,,,,
2017-05-02 05:40:00+00:00,1493704050,16.09575,35583.2,27.63,27868.75,5.9775,23.915,14.27,39.9475,2.83,34,,,,,,
2017-05-02 06:00:00+00:00,1493705250,16.0085,36585.425,28.5575,28711.5,5.7075,22.83,13.62,38.1325,2.81,33.925,,,,,,
2017-05-02 06:20:00+00:00,1493706450,15.88225,35282.15,27.5175,27768.75,5.3375,21.3525,12.39,34.685,2.2175,26.55,,,,,,
2017-05-02 06:40:00+00:00,1493707650,15.8005,34316.575,26.7375,27060.5,4.9775,19.8975,11.1975,31.355,1.025,12.175,,,,,,
2017-05-02 07:00:00+00:00,1493708850,15.776,34718.25,27.1,27393.25,5.0675,20.2725,11.5275,32.2725,1.8975,22.6,,,,,,
2017-05-02 07:20:00+00:00,1493710050,15.677,35262.725,27.6425,27886.25,5.61,22.4375,12.355,34.595,2.4275,28.925,,,,,,
2017-05-02 07:40:00+00:00,1493711250,15.55975,34575.975,27.13,27417.5,5.305,21.22,11.2875,31.6075,1.93,22.875,,,,,,
2017-05-02 08:00:00+00:00,1493712450,15.4655,34987.45,27.5475,27805.5,5.135,20.5475,11.18,31.305,2.0125,23.85,,,,,,
2017-05-02 08:20:00+00:00,1493713650,15.3425,34803.15,27.475,27738.5,5.71,22.83,12.1475,34.015,2.16,25.525,,,,,,
2017-05-02 08:40:00+00:00,1493714850,15.222,34702.125,27.4725,27736.25,5.7375,22.94,12.435,34.82,1.9,22.425,,,,,,
2017-05-02 09:00:00+00:00,1493716050,15.09025,37043.725,29.635,29699.75,5.0075,20.0375,11.4675,32.1125,2.265,27.025,,,,,,
2017-05-02 09:20:00+00:00,1493717250,14.93725,36947.525,29.665,29730.25,4.835,19.35,10.71,29.99,2.455,29.225,,,,,,
2017-05-02 09:40:00+00:00,1493718450,14.802,38511.4,31.1725,31087.75,5.2425,20.9775,11.2375,31.46,2.725,32.575,,,,,,
2017-05-02 10:00:00+00:00,1493719650,14.623,37998.6,30.85,30804.25,4.785,19.1475,10.0175,28.055,2.6325,31.275,,,,,,
2017-05-02 10:20:00+00:00,1493720850,14.55625,36754.25,29.78,29843,5.1025,20.4075,10.5775,29.6175,2.4275,28.625,,,,,,
2017-05-02 10:40:00+00:00,1493722050,14.49775,36659.925,29.7425,29808.25,5.18,20.7125,10.865,30.42,2.235,26.375,,,,,,
2017-05-02 11:00:00+00:00,1493723250,14.424,36957.975,30.065,30103.75,4.9625,19.85,10.5875,29.64,2.38,28.05,,,,,,
2017-05-02 11:20:00+00:00,1493724450,14.3655,37366.125,30.485,30479,5.225,20.8975,11.12,31.135,1.84,21.725,,,,,,
2017-05-02 11:40:00+00:00,1493725650,14.25925,37833.275,30.99,30938.75,4.93,19.72,10.27,28.76,2.655,31.35,,,,,,
2017-05-02 12:00:00+00:00,1493726850,14.141,37815.1,31.07,31012,4.6875,18.745,9.895,27.705,3.045,35.875,,,,,,
2017-05-02 12:20:00+00:00,1493728050,14.0155,37350.825,30.7475,30723.5,4.7925,19.1625,9.8775,27.6525,2.92,34.25,,,,,,
2017-05-02 12:40:00+00:00,1493729250,13.9735,37951.425,31.3325,31250.25,3.98,15.925,8.905,24.9325,3.2225,37.95,,,,,,
2017-05-02 13:00:00+00:00,1493730450,13.88,36869.575,30.4125,30427.75,4.215,16.8675,9.18,25.705,3.015,35.25,,,,,,
2017-05-02 13:20:00+00:00,1493731650,13.814,37768.625,31.2925,31219.5,3.81,15.245,8.8525,24.7825,3.115,36.525,,,,,,
2017-05-02 13:40:00+00:00,1493732850,13.78975,37682.5,31.235,31167,4.05,16.195,9.1675,25.665,2.72,31.85,,,,,,
2017-05-02 14:00:00+00:00,1493734050,13.7715,37987.625,31.5325,31433.25,4.2,16.8,9.535,26.695,2.71,31.775,,,,,,
2017-05-02 14:20:00+00:00,1493735250,13.75475,39356.925,32.8125,32579.5,3.9975,15.9925,9.195,25.7475,2.38,28.125,,,,,,
2017-05-02 14:40:00+00:00,1493736450,13.7435,39190.1,32.6675,32450,3.795,15.1875,8.6775,24.3,2.39,28.25,,,,,,
2017-05-02 15:00:00+00:00,1493737650,13.7515,38217.725,31.76,31638.75,3.6025,14.415,8.425,23.5875,2.63,30.875,,,,,,
2017-05-02 15:20:00+00:00,1493738850,13.7135,36231.75,29.9575,30022.5,3.24,12.965,7.8675,22.03,3.025,35.125,,,,,,
2017-05-02 15:40:00+00:00,1493740050,13.73825,35621.7,29.38,29499.25,3.08,12.3175,7.7075,21.5775,3.1675,36.675,,,,,,
2017-05-02 16:00:00+00:00,1493741250,14.32225,34238.175,27.72,27971.75,8.1675,32.665,16.365,45.82,3.96,45.875,,,,,,
2017-05-02 16:20:00+00:00,1493742450,15.665,30263,23.36,23946.75,15.1925,60.77,29.085,81.43,6.2525,72.6,,,,,,
2017-05-02 16:40:00+00:00,1493743650,16.205,28985.375,21.965,22643.75,19.385,77.535,36.53,102.29,7.65,88.925,,,,,,
2017-05-02 17:00:00+00:00,1493744850,16.63125,30071.325,22.6325,23263.75,19.8275,79.31,39.195,109.75,7.7275,91.025,,,,,,
2017-05-02 17:20:00+00:00,1493746050,16.74275,31530.85,23.7825,24333,19.54,78.1675,39.18,109.705,7.645,90.825,,,,,,
2017-05-02 17:40:00+00:00,1493747250,17.32775,31051.425,23.0475,23649.25,18.7175,74.875,39.1325,109.5725,7.83,93.725,,,,,,
2017-05-02 18:00:00+00:00,1493748450,17.5845,31663.45,23.4,23975.25,16.1675,64.6725,35.79,100.215,6.84,82.475,,,,,,
2017-05-02 18:20:00+00:00,1493749650,18.00825,33740.425,24.845,25311.25,16.01,64.04,36.6675,102.665,5.92,72.55,,,,,,
2017-05-02 18:40:00+00:00,1493750850,18.907,33615.6,24.2175,24732,17.1875,68.7575,39.865,111.6275,6.8725,85.375,,,,,,
2017-05-02 19:00:00+00:00,1493752050,20.09825,32517.3,22.69,23322.25,19.54,78.165,43.8075,122.6525,8.6875,109.5,,,,,,
2017-05-02 19:20:00+00:00,1493753250,20.841,35412,24.5,25002.75,21.4425,85.765,47.94,134.2375,9.6575,124.65,,,,,,
2017-05-02 19:40:00+00:00,1493754450,21.31225,35435.325,24.25,24780.25,24.805,99.2175,55.0175,154.05,10.3475,134.575,,,,,,
2017-05-02 20:00:00+00:00,1493755650,21.4485,34859.275,23.75,24316.5,26.1575,104.6325,57.9675,162.305,9.1,118.275,,,,,,
2017-05-02 20:20:00+00:00,1493756850,20.366,35264.425,24.6675,25152.25,25.365,101.4625,57.6025,161.285,5.955,76.3,,,,,,
2017-05-02 20:40:00+00:00,1493758050,19.87925,35617.2,25.22,25660.5,24.605,98.425,55.555,155.555,4.0475,51.575,,,,,,
2017-05-02 21:00:00+00:00,1493759250,19.80475,34788.475,24.615,25103.75,24.1425,96.5825,55.87,156.435,3.1675,40.1,,,,,,
2017-05-02 21:20:00+00:00,1493760450,19.878,36900.35,26.23,26585.75,24.255,97.01,55.3975,155.1075,2.5425,32.6,,,,,,
2017-05-02 21:40:00+00:00,1493761650,19.9855,35805.625,25.3025,25738.75,23.2575,93.025,54.2125,151.7875,2.1175,27.05,,,,,,
2017-05-02 22:00:00+00:00,1493762850,20.647,35935.65,25.015,25476.5,24.1975,96.7825,55.25,154.7,2.885,37.2,,,,,,
2017-05-02 22:20:00+00:00,1493764050,21.9905,35544.9,23.96,24519.25,24.015,96.065,53.8175,150.6825,6.4725,85.225,,,,,,
2017-05-02 22:40:00+00:00,1493765250,21.149,35778.975,24.6025,25105,23.5975,94.3925,52.8725,148.0475,2.625,34.125,,,,,,
2017-05-02 23:00:00+00:00,1493766450,21.78,34430.975,23.24,23850,25.04,100.155,57.0725,159.8,6.2,80.975,,,,,,
2017-05-02 23:20:00+00:00,1493767650,21.95025,36264.1,24.5225,25034.25,23.505,94.015,53.4275,149.595,7.635,100.525,,,,,,
2017-05-02 23:40:00+00:00,1493768850,21.39575,38527.075,26.555,26894,22.465,89.8575,53.21,148.98,6.51,85.925,,,,,,
2017-05-03 00:00:00+00:00,1493770050,20.95325,37785.85,26.26,26619.5,19.14,76.555,47.7825,133.79,6.425,83.975,,,,,,
2017-05-03 00:20:00+00:00,1493771250,20.339,38031.2,26.8275,27135.5,16.0625,64.255,41.2875,115.605,6.32,81.95,,,,,,
2017-05-03 00:40:00+00:00,1493772450,19.7595,39123.775,28.0675,28260.25,14.285,57.14,38.3875,107.4825,6.455,83.4,,,,,,
2017-05-03 01:00:00+00:00,1493773650,19.20175,39631.125,28.8575,28969.75,12.55,50.1975,33.025,92.47,5.715,73.4,,,,,,
2017-05-03 01:20:00+00:00,1493774850,18.7515,40154.025,29.6,29637,11.7425,46.96,30.2325,84.65,4.9725,63.65,,,,,,
2017-05-03 01:40:00+00:00,1493776050,18.43875,40557.95,30.1575,30140,11.35,45.405,30.39,85.0925,5.375,68.575,,,,,,
2017-05-03 02:00:00+00:00,1493777250,18.22825,38797.575,28.8525,28964.5,11.23,44.9275,30.355,84.9925,5.205,65.625,,,,,,
2017-05-03 02:20:00+00:00,1493778450,18.0985,38987.2,29.1,29189.5,11.66,46.64,30.865,86.4225,5.935,74.75,,,,,,
2017-05-03 02:40:00+00:00,1493779650,18.0825,38437.15,28.655,28787.75,12.5775,50.3075,31.85,89.1775,5.83,73.25,,,,,,
2017-05-03 03:00:00+00:00,1493780850,18.077,37910.425,28.225,28397.25,13.2375,52.95,34.315,96.085,6.005,75.225,,,,,,
2017-05-03 03:20:00+00:00,1493782050,17.79075,37505.05,28.0825,28270,10.7275,42.9125,30.9625,86.7025,4.8625,60.575,,,,,,
2017-05-03 03:40:00+00:00,1493783250,17.55475,33859.15,25.22,25656.5,11.12,44.48,30.26,84.735,5.0875,61.95,,,,,,
2017-05-03 04:00:00+00:00,1493784450,17.4045,34579.55,25.9125,26290.25,10.715,42.865,30.0025,84.015,4.895,59.7,,,,,,
2017-05-03 04:20:00+00:00,1493785650,17.21775,33209.475,24.8925,25355,9.485,37.9325,26.8375,75.1425,3.675,44.375,,,,,,
2017-05-03 04:40:00+00:00,1493786850,17.069,33027.7,24.83,25300.5,10.675,42.7025,28.4225,79.5825,3.77,45.375,,,,,,
2017-05-03 05:00:00+00:00,1493788050,16.874,33419.275,25.275,25712.75,10.535,42.14,28.79,80.62,3.32,40,,,,,,
2017-05-03 05:20:00+00:00,1493789250,16.70375,36583.2,28.075,28257.75,9.25,37.01,24.755,69.3125,2.0025,24.425,,,,,,
2017-05-03 05:40:00+00:00,1493790450,16.603,38559.6,29.825,29851.5,9.0325,36.1375,24.59,68.8525,1.1,13.575,,,,,,
2017-05-03 06:00:00+00:00,1493791650,16.452,38355.025,29.7625,29796,8.5475,34.1925,24.2025,67.77,0.795,9.725,,,,,,
2017-05-03 06:20:00+00:00,1493792850,16.282,38439.025,29.96,29976.75,8.5475,34.1925,23.59,66.0525,0.88,10.775,,,,,,
2017-05-03 06:40:00+00:00,1493794050,16.12225,40622.15,31.99,31796.25,8.0375,32.1475,23.2575,65.1225,1.1475,14.2,,,,,,
2017-05-03 07:00:00+00:00,1493795250,16.00475,40014.525,31.5475,31405.25,7.3625,29.455,22.4975,62.995,0.825,10.125,,,,,,
2017-05-03 07:20:00+00:00,1493796450,15.913,39102.35,30.82,30754,7.48,29.915,22.615,63.3275,1.2,14.65,,,,,,
2017-05-03 07:40:00+00:00,1493797650,15.82875,39480.525,31.22,31113,7.75,31,23.2325,65.0525,0.7825,9.525,,,,,,
2017-05-03 08:00:00+00:00,1493798850,15.70075,41441.625,33.0625,32755.25,7.33,29.315,22.265,62.345,0.2775,3.45,,,,,,
2017-05-03 08:20:00+00:00,1493800050,15.506,41250.2,33.055,32751.5,7.4475,29.7875,21.88,61.26,1.13,13.85,,,,,,
2017-05-03 08:40:00+00:00,1493801250,15.3995,40536.275,32.5025,32265,7.105,28.4125,21.675,60.6925,1.15,14,,,,,,
2017-05-03 09:00:00+00:00,1493802450,15.2755,39594.65,31.7625,31607.25,6.82,27.28,21.1325,59.1675,1.365,16.55,,,,,,
2017-05-03 09:20:00+00:00,1493803650,15.21475,39867.35,32.055,31870.25,6.9225,27.695,21.5225,60.2625,1.2375,15.05,,,,,,
2017-05-03 09:40:00+00:00,1493804850,15.1525,38918.75,31.26,31157.25,6.665,26.6525,20.8575,58.41,1.7675,21.25,,,,,,
2017-05-03 10:00:00+00:00,1493806050,15.06975,38806.725,31.225,31127.75,6.9725,27.8875,21.17,59.275,1.1225,13.5,,,,,,
2017-05-03 10:20:00+00:00,1493807250,14.9715,36692.9,29.4125,29500.75,7.2,28.8025,21.7775,60.9825,1.8875,22.375,,,,,,
2017-05-03 10:40:00+00:00,1493808450,14.8925,37014.9,29.7575,29815.75,6.5825,26.3325,20.7925,58.22,1.455,17.275,,,,,,
2017-05-03 11:00:00+00:00,1493809650,14.782,38485.85,31.165,31082.25,6.345,25.385,20.55,57.54,1.4225,17.025,,,,,,
2017-05-03 11:20:00+00:00,1493810850,14.68825,38722.925,31.455,31343,6.305,25.2175,20.6075,57.7075,1.795,21.45,,,,,,
2017-05-03 11:40:00+00:00,1493812050,14.6075,38708.175,31.505,31391.5,5.895,23.57,20.1325,56.3725,1.5775,18.875,,,,,,
2017-05-03 12:00:00+00:00,1493813250,14.48375,38371.575,31.3,31210.5,6.0575,24.225,19.945,55.845,1.69,20.075,,,,,,
2017-05-03 12:20:00+00:00,1493814450,14.387,38162,31.19,31112,6.025,24.1,19.695,55.1475,1.735,20.525,,,,,,
2017-05-03 12:40:00+00:00,1493815650,14.28525,37996.85,31.1175,31053,5.8425,23.375,19.485,54.5575,1.565,18.475,,,,,,
2017-05-03 13:00:00+00:00,1493816850,14.18975,38212.975,31.3925,31301.25,6.39,25.5575,20.0725,56.205,1.905,22.55,,,,,,
2017-05-03 13:20:00+00:00,1493818050,14.1575,38032.925,31.255,31178.25,6.835,27.3425,20.94,58.635,1.8025,21.275,,,,,,
2017-05-03 13:40:00+00:00,1493819250,14.07275,38801.975,32.0325,31873.5,6.585,26.3475,20.8975,58.51,2.03,24.025,,,,,,
2017-05-03 14:00:00+00:00,1493820450,14.07925,39620.375,32.78,32540.75,6.8925,27.565,21.465,60.1025,1.705,20.3,,,,,,
2017-05-03 14:20:00+00:00,1493821650,14.01425,39441.025,32.67,32444.25,6.38,25.52,20.885,58.48,1.7375,20.65,,,,,,
2017-05-03 14:40:00+00:00,1493822850,14.0355,39162.675,32.395,32199,6.0375,24.1475,19.755,55.3175,2.485,29.5,,,,,,
2017-05-03 15:00:00+00:00,1493824050,13.97875,37740.725,31.1325,31072.25,5.955,23.815,19.25,53.91,2.6775,31.5,,,,,,
2017-05-03 15:20:00+00:00,1493825250,13.98,37915.425,31.2925,31215.25,5.86,23.43,19.1125,53.51,2.42,28.475,,,,,,
2017-05-03 15:40:00+00:00,1493826450,13.9585,37685.15,31.095,31041.75,5.6875,22.745,19.045,53.3275,2.5575,30.025,,,,,,
2017-05-03 16:00:00+00:00,1493827650,13.9555,37701.8,31.115,31057.75,5.3675,21.4625,18.865,52.82,2.3275,27.375,,,,,,
2017-05-03 16:20:00+00:00,1493828850,13.9455,37600.025,31.0275,30981.75,4.375,17.495,17.9025,50.14,2.545,29.9,,,,,,
2017-05-03 16:40:00+00:00,1493830050,14.12225,37394.275,30.7,30681,4.5675,18.2575,17.9375,50.215,2.6025,30.625,,,,,,
2017-05-03 17:00:00+00:00,1493831250,14.178,36808.05,30.125,30159,5.06,20.2425,19.84,55.545,2.345,27.55,,,,,,
2017-05-03 17:20:00+00:00,1493832450,15.0245,37985.55,30.525,30503.75,6.8975,27.6,22.29,62.41,2.9475,35.325,,,,,,
2017-05-03 17:40:00+00:00,1493833650,16.1725,36849.15,28.6675,28810,9.3525,37.425,26.4325,74.0075,4.2075,50.9,,,,,,
2017-05-03 18:00:00+00:00,1493834850,16.74525,36958.8,28.35,28519,10.175,40.695,28.41,79.5475,4.03,49.2,,,,,,
2017-05-03 18:20:00+00:00,1493836050,17.78225,36457.275,27.2225,27487.5,11.8775,47.4975,31.615,88.515,5.125,63.45,,,,,,
2017-05-03 18:40:00+00:00,1493837250,18.24025,35731.4,26.32,26667,14.805,59.2125,36.5075,102.23,5.9275,73.7,,,,,,
2017-05-03 19:00:00+00:00,1493838450,19.0165,34925.625,25.1925,25631.25,16.48,65.93,39.765,111.34,7.085,88.725,,,,,,
2017-05-03 19:20:00+00:00,1493839650,19.96875,34185.575,24.055,24586.5,17.7925,71.17,41.53,116.2775,7.915,100.275,,,,,,